Location: Doverdale
(52.2833°N, 2.2000°W)
Time: 13:53:09
(UTC+00:00)

Cosmos 1315 Rocket - Pass Details

Date: 29 October 2020
Orbit: 530 x 567 km, 81.2° (Epoch: 29 November)

Event Time Altitude Azimuth Distance (km) Brightness Sun altitude
Rises 19:17:30 0° 205° (SSW) 2,686 6.5 -23.8°
Reaches altitude 10° 19:19:41 10° 211° (SSW) 1,805 5.7 -24.2°
Maximum altitude 19:23:34 50° 287° (WNW) 704 3.6 -24.7°
Drops below altitude 10° 19:27:31 10° 4° (N) 1,842 5.5 -25.3°
Enters shadow 19:27:39 - 5° (N) 1,896 5.6 -25.4°
